| time (UTC) | temp C | wind direction | speed KPH | gust KPH | rain 1hr cm | rain 24hr cm | rain mn cm | humidity % | barometer mb |
| 20260504000804 | 10 | 253 | 8.0 | 11.3 | 0.00 | 0.05 | 0.05 | 76 | 1006.5 |
| 20260504000305 | 10 | 252 | 4.8 | 29.0 | 0.00 | 0.05 | 0.05 | 76 | 1006.4 |
| 20260503230805 | 10 | 254 | 11.3 | 24.1 | 0.00 | 0.05 | 0.05 | 78 | 1006.5 |
| 20260503230304 | 10 | 258 | 9.7 | 33.8 | 0.00 | 0.05 | 0.05 | 78 | 1006.5 |
| 20260503220804 | 10 | 254 | 11.3 | 20.9 | 0.05 | 0.05 | 0.05 | 79 | 1007.1 |
| 20260503220306 | 10 | 259 | 8.0 | 40.2 | 0.05 | 0.05 | 0.05 | 79 | 1007.2 |
| 20260503210304 | 12 | 250 | 22.5 | 37.0 | 0.00 | 0.00 | 0.00 | 63 | 1006.9 |
| 20260503200805 | 12 | 209 | 6.4 | 14.5 | 0.00 | 0.00 | 0.00 | 53 | 1006.5 |
| 20260503200304 | 13 | 147 | 9.7 | 20.9 | 0.00 | 0.00 | 0.00 | 52 | 1006.6 |
| 20260503190805 | 13 | 175 | 9.7 | 19.3 | 0.00 | 0.00 | 0.00 | 40 | 1007.6 |
| 20260503190304 | 13 | 196 | 8.0 | 22.5 | 0.00 | 0.00 | 0.00 | 40 | 1007.9 |
| 20260503180804 | 14 | 223 | 8.0 | 19.3 | 0.00 | 0.00 | 0.00 | 39 | 1008.4 |
| 20260503170804 | 13 | 174 | 9.7 | 19.3 | 0.00 | 0.00 | 0.00 | 42 | 1009.5 |
| 20260503170304 | 12 | 236 | 9.7 | 24.1 | 0.00 | 0.00 | 0.00 | 42 | 1009.5 |
| 20260503150805 | 11 | 241 | 4.8 | 14.5 | 0.00 | 0.00 | 0.00 | 47 | 1010.9 |
| 20260503150305 | 11 | 241 | 6.4 | 16.1 | 0.00 | 0.00 | 0.00 | 48 | 1010.9 |
| 20260503140306 | 8 | 260 | 3.2 | 11.3 | 0.00 | 0.00 | 0.00 | 56 | 1011.3 |
| 20260503130805 | 6 | 347 | 1.6 | 3.2 | 0.00 | 0.00 | 0.00 | 64 | 1011.7 |
| 20260503110805 | -1 | 303 | 0.0 | 0.0 | 0.00 | 0.00 | 0.00 | 88 | 1011.9 |
| 20260503110305 | -1 | 303 | 0.0 | 0.0 | 0.00 | 0.00 | 0.00 | 88 | 1012.0 |
| 20260503090305 | -1 | 303 | 0.0 | 1.6 | 0.00 | 0.00 | 0.00 | 86 | 1012.4 |
| 20260503080805 | -1 | 303 | 0.0 | 0.0 | 0.00 | 0.00 | 0.00 | 85 | 1012.8 |
| 20260503080305 | -1 | 303 | 0.0 | 1.6 | 0.00 | 0.00 | 0.00 | 85 | 1012.8 |
| 20260503070805 | 0 | 303 | 0.0 | 0.0 | 0.00 | 0.00 | 0.00 | 83 | 1012.8 |
| 20260503060305 | 0 | 303 | 0.0 | 0.0 | 0.00 | 0.00 | 0.00 | 80 | 1013.2 |
| 20260503050804 | 0 | 303 | 0.0 | 0.0 | 0.00 | 0.00 | 0.00 | 79 | 1013.3 |
| 20260503050304 | 0 | 303 | 0.0 | 3.2 | 0.00 | 0.00 | 0.00 | 79 | 1013.4 |
| 20260503040805 | 1 | 303 | 0.0 | 1.6 | 0.00 | 0.00 | 0.00 | 77 | 1013.5 |
| 20260503040304 | 1 | 303 | 0.0 | 4.8 | 0.00 | 0.00 | 0.00 | 76 | 1013.5 |
| 20260503030805 | 2 | 296 | 0.0 | 0.0 | 0.00 | 0.00 | 0.00 | 72 | 1013.5 |
| 20260503030305 | 2 | 296 | 0.0 | 0.0 | 0.00 | 0.00 | 0.00 | 72 | 1013.5 |
| 20260503020805 | 3 | 296 | 0.0 | 0.0 | 0.00 | 0.00 | 0.00 | 65 | 1013.6 |
| 20260503020305 | 4 | 296 | 0.0 | 0.0 | 0.00 | 0.00 | 0.00 | 64 | 1013.6 |
| 20260503010305 | 5 | 296 | 0.0 | 4.8 | 0.00 | 0.00 | 0.00 | 61 | 1013.4 |